Theta_e
341 341 341 342 341 340 340 338 333 333 330 332 336 333 332 331 330 331 330 329 330 332 330 331 330 331 330 328 327 325 324 324 324 324 323 324 324 323 323 322 321 321 320
341 340 339 339 340 339 339 333 332 331 330 331 334 332 330 329 329 330 329 327 327 330 331 331 331 331 330 328 326 325 324 324 324 323 323 323 323 322 322 321 320 320 319
339 338 340 339 338 339 336 335 332 330 329 333 331 330 329 329 327 327 328 327 327 326 328 330 331 330 329 328 327 325 324 324 324 323 322 322 322 322 321 320 319 319 318
337 334 335 336 339 337 336 332 332 328 328 331 328 328 327 326 326 327 326 327 327 326 326 328 330 330 329 328 326 324 324 324 323 323 322 322 322 321 321 320 319 319 318
338 338 336 336 338 333 333 330 331 328 326 328 326 326 326 323 325 324 326 326 328 327 326 326 326 326 328 328 325 325 326 325 324 324 323 322 321 321 321 320 320 319 317
336 336 336 332 332 330 330 327 328 327 328 326 323 324 325 327 327 326 325 325 326 327 327 328 327 325 324 327 327 325 326 326 324 324 323 323 322 321 320 320 320 319 318
336 334 330 327 326 324 324 326 328 324 324 329 323 323 324 327 325 325 326 325 326 325 326 325 326 325 324 324 326 326 326 326 326 325 324 323 322 322 321 319 319 319 319
335 331 328 326 324 323 322 323 324 324 327 327 322 319 314 317 322 323 324 324 328 324 324 325 325 325 325 324 323 325 326 327 327 326 325 325 324 324 322 320 320 319 319
334 329 326 325 323 323 321 322 324 323 322 326 325 320 313 311 316 321 323 323 325 323 323 324 326 325 327 326 324 322 320 321 327 329 328 326 325 325 324 323 322 321 320
325 325 325 325 323 322 321 323 326 324 325 322 325 324 324 321 314 313 321 321 323 322 325 323 324 325 325 325 324 319 315 314 318 325 329 329 327 326 326 325 324 324 323
325 323 323 323 322 322 322 323 324 326 327 324 323 322 324 323 323 318 313 316 322 323 323 324 324 324 324 326 327 322 312 312 313 319 323 327 329 329 327 327 326 326 325
322 322 324 322 322 322 323 324 328 327 326 325 325 326 322 320 318 318 316 318 318 321 323 324 325 325 326 326 323 316 312 309 310 315 318 321 324 326 328 328 329 328 327
321 321 321 321 322 323 323 324 324 324 327 326 325 324 323 322 323 321 316 312 316 319 321 326 326 326 325 326 325 315 313 307 308 311 314 316 319 320 322 324 325 327 328
322 321 320 319 319 321 322 321 320 319 320 320 320 321 321 322 323 323 321 317 313 314 319 322 325 326 326 326 324 313 322 308 307 307 309 312 314 315 316 318 320 321 323
324 323 320 317 318 318 318 318 318 318 319 319 321 322 320 321 321 324 323 322 317 311 311 319 319 327 328 328 324 328 327 316 307 306 306 308 310 312 312 313 314 315 317
324 322 321 318 317 318 319 318 317 318 317 319 317 321 321 321 321 321 323 323 322 318 313 317 318 319 324 323 323 327 327 315 308 305 304 305 306 308 309 310 311 311 313
325 322 320 319 316 315 315 314 315 315 315 316 317 319 317 322 322 322 322 322 321 320 314 318 320 319 317 318 320 323 325 326 325 305 303 303 303 304 305 306 306 308 309
326 325 323 319 317 315 315 314 314 313 312 312 314 314 315 315 317 322 321 320 320 319 317 316 318 315 318 318 320 319 320 323 325 315 305 304 304 303 302 302 302 303 304
324 325 324 320 318 317 316 316 315 315 316 316 315 318 319 318 318 317 320 320 320 318 318 315 314 318 320 323 323 325 325 326 325 316 305 303 303 302 302 301 301 301 301
324 324 325 324 322 321 319 317 316 316 318 320 321 321 322 319 314 316 315 316 318 318 317 315 317 319 321 324 324 321 321 324 324 325 318 312 308 304 302 302 302 302 301
324 325 325 325 324 322 307 308 318 318 320 318 322 322 320 315 307 310 315 316 319 318 318 316 316 319 320 321 320 323 321 323 324 326 324 326 326 325 302 295 295 296 296
316 315 309 317 300 295 289 290 295 319 321 320 319 320 320 309 309 301 301 302 309 319 318 318 318 317 319 321 322 321 320 317 313 321 318 317 313 290 290 291 292 293 294
299 299 295 293 290 290 288 289 289 307 319 316 307 309 312 302 295 299 300 297 298 296 292 308 311 312 312 297 297 307 311 311 310 298 300 302 289 285 286 288 290 290 290
291 292 291 290 288 287 287 288 289 302 296 291 290 291 292 291 288 290 296 302 301 288 290 291 288 285 284 285 287 293 294 295 298 290 290 291 286 283 284 285 288 288 288
288 287 289 289 287 286 287 288 297 294 289 286 286 286 287 286 286 288 297 300 290 285 285 285 284 283 283 283 283 290 286 287 290 286 282 285 285 283 282 281 284 286 286
287 287 286 286 287 285 286 287 294 292 287 285 284 284 284 284 285 286 289 292 283 282 281 281 281 281 281 281 282 281 281 284 285 285 281 282 284 283 279 282 284 285 285
Wind_Speed
7 6 7 4 6 8 9 9 9 8 8 14 12 11 11 8 8 9 8 12 13 15 16 17 16 15 15 15 14 13 12 13 12 10 10 10 10 10 10 10 10 9 8
5 7 7 7 8 8 9 8 9 8 7 9 12 11 10 6 6 7 12 9 12 12 14 14 15 16 16 15 14 13 13 12 12 12 10 9 9 10 9 9 9 9 8
8 10 7 6 9 8 13 10 9 9 9 10 12 10 9 9 8 8 11 10 10 10 11 13 14 14 14 14 14 13 12 12 12 12 11 10 9 9 9 9 9 9 9
10 7 7 7 8 9 9 9 8 9 9 11 9 11 10 9 11 10 12 11 9 9 8 11 13 14 14 14 13 13 12 12 12 12 11 11 10 10 10 10 10 10 10
12 12 8 8 12 9 10 8 9 9 8 10 8 7 9 9 10 9 14 13 14 10 8 11 12 12 13 14 14 14 15 14 14 14 13 12 12 12 12 11 12 12 11
12 10 9 8 10 9 9 8 11 9 10 10 8 7 6 6 5 6 5 8 13 12 11 13 10 9 11 13 15 15 16 16 16 15 15 15 14 14 14 14 14 14 14
11 12 6 8 9 10 11 11 9 12 9 7 8 6 5 6 7 6 4 6 9 12 10 7 9 9 10 13 15 17 18 18 18 18 17 17 16 15 15 15 16 16 16
11 7 9 11 9 11 12 11 10 8 9 9 11 8 5 2 1 5 5 9 10 10 12 13 13 12 11 11 13 16 18 19 19 19 18 16 16 16 17 18 18 18 18
10 9 9 8 13 12 12 14 12 12 9 10 13 6 7 6 7 5 7 8 8 8 10 12 11 10 10 9 13 15 15 14 16 19 20 19 19 20 20 20 20 20 21
8 8 9 13 14 13 14 14 12 12 12 12 10 7 7 7 10 6 7 7 7 10 9 8 10 10 9 6 9 13 18 17 15 16 17 20 20 22 22 22 22 22 22
10 7 5 6 13 10 14 15 13 13 11 11 10 9 9 6 11 9 10 8 8 11 10 9 9 9 11 10 9 9 12 19 20 19 20 19 19 21 23 23 23 24 24
6 8 8 5 7 10 13 12 12 13 10 10 9 9 10 7 6 5 3 10 11 10 10 9 10 8 9 9 10 13 17 18 19 22 23 22 22 22 22 21 23 25 26
6 9 9 7 6 7 8 9 7 9 10 10 9 6 4 6 5 7 4 7 8 8 8 8 9 9 10 9 11 14 12 15 17 19 20 22 23 23 23 23 24 25 25
7 10 9 10 9 9 8 7 5 4 4 4 6 3 3 4 7 8 9 6 5 6 6 8 9 9 10 10 13 16 13 17 18 18 19 21 21 21 21 22 23 24 26
8 11 11 10 11 11 11 11 8 9 8 7 7 9 8 8 7 9 5 8 7 7 8 9 7 12 10 10 11 11 12 13 17 18 19 22 24 23 23 23 24 25 26
13 13 12 11 11 11 12 12 9 9 10 8 7 11 10 9 7 6 8 8 6 8 9 7 2 4 7 9 10 11 12 12 16 19 21 23 24 25 25 26 26 26 27
12 13 11 11 12 11 11 11 10 10 11 9 10 12 12 11 8 9 10 9 9 8 9 9 8 4 4 7 9 9 12 13 12 20 21 21 23 24 25 27 28 29 28
11 14 13 13 11 12 12 12 12 10 12 11 12 11 15 11 13 12 8 6 5 6 8 14 11 8 11 13 15 17 16 16 14 17 24 26 28 26 25 25 26 27 26
10 10 12 13 13 12 12 12 13 12 15 16 15 17 17 15 15 10 12 11 11 10 8 9 13 12 13 12 15 17 16 16 14 20 17 22 23 22 22 23 23 21 22
12 12 13 13 13 12 14 14 12 13 16 16 16 16 14 12 13 11 12 12 10 10 11 12 14 14 13 14 13 12 13 12 13 14 16 19 13 20 25 25 23 19 20
5 8 9 7 9 5 3 3 12 13 12 12 13 12 8 10 12 13 9 13 15 13 12 12 12 13 13 12 13 11 13 12 12 11 11 10 10 9 9 13 12 12 9
9 8 10 5 12 9 12 12 8 4 8 8 8 8 11 13 16 18 19 19 15 13 14 11 11 13 16 12 12 12 11 11 11 5 8 9 7 7 7 7 12 15 13
12 12 12 13 13 11 17 14 10 5 5 2 6 5 5 7 12 8 7 13 15 13 7 13 16 15 14 7 6 6 8 7 6 6 4 3 5 5 5 7 17 17 18
12 11 12 11 11 11 17 15 10 3 10 12 11 10 8 10 12 10 7 5 9 13 12 8 10 9 8 7 5 5 4 5 3 3 5 2 1 3 3 5 18 18 19
10 11 11 11 12 13 20 19 7 10 12 12 12 14 11 10 15 14 3 2 10 10 16 21 20 17 18 20 15 2 4 3 3 3 8 4 3 2 4 4 5 16 17
7 8 12 12 13 13 23 22 9 8 10 8 9 11 20 14 16 15 7 6 9 7 7 8 7 12 13 14 18 10 5 2 3 1 5 5 2 1 1 1 3 3 3
Wind_Direction
200 214 223 202 203 188 177 169 169 172 194 212 183 183 194 206 147 131 137 137 150 151 164 163 163 161 152 148 149 147 160 157 159 164 163 158 155 147 144 143 146 145 143
205 223 222 219 189 182 162 164 168 169 186 201 182 194 168 153 165 146 131 148 152 152 163 164 166 165 160 163 156 162 167 173 163 173 173 172 166 162 164 158 163 164 163
220 227 225 195 195 179 171 169 171 175 183 196 174 163 168 167 173 182 135 147 156 159 171 171 172 169 167 169 168 172 176 181 179 179 182 183 181 175 181 180 188 185 184
217 214 213 205 194 173 168 168 166 172 189 197 181 163 164 164 174 182 146 156 156 171 177 174 168 171 174 178 182 187 187 187 192 189 192 196 197 198 200 198 204 205 205
222 220 218 203 182 170 177 172 169 170 184 198 174 165 150 171 161 183 158 169 175 167 179 170 178 175 175 180 190 199 196 196 199 198 195 203 208 214 212 215 217 219 220
218 215 210 191 173 159 171 170 171 176 189 180 160 155 159 118 143 138 175 185 160 178 180 170 183 187 182 185 193 207 209 202 206 208 207 207 211 219 222 224 226 229 228
214 203 174 162 170 163 175 172 168 174 188 194 137 136 93 124 125 134 171 232 173 169 186 160 194 203 185 197 203 207 219 213 211 212 214 215 216 219 225 229 233 235 235
210 193 190 187 179 169 173 169 173 178 186 187 159 127 140 86 160 166 186 213 219 182 184 194 211 206 191 190 210 211 220 223 218 218 218 219 219 218 224 230 234 238 239
191 199 199 185 173 170 177 178 181 185 179 177 167 138 161 182 160 189 184 226 215 215 205 200 207 214 221 187 184 199 213 227 233 222 217 215 215 219 222 227 231 235 238
182 190 210 211 186 173 174 179 180 184 173 169 179 188 178 186 174 163 191 208 257 208 222 215 204 224 230 214 225 194 192 215 227 240 239 225 222 223 225 227 230 232 235
175 171 147 161 169 171 165 176 180 179 180 173 180 196 208 215 184 175 179 186 215 220 214 215 223 212 214 224 219 217 191 204 218 227 234 238 237 231 230 231 233 235 237
156 159 157 125 136 158 167 171 180 183 183 198 191 192 200 188 208 229 220 187 201 209 218 210 213 226 219 217 223 219 204 202 212 220 228 233 236 236 237 239 238 239 240
159 165 158 146 144 151 151 162 172 193 192 190 195 182 196 205 221 218 199 235 196 211 202 213 214 211 223 222 229 224 220 212 212 219 227 233 237 239 242 244 245 246 247
162 160 165 156 148 149 153 155 158 151 141 122 145 153 203 229 239 226 234 243 211 220 203 196 205 213 215 221 220 215 227 214 216 220 224 227 233 239 241 244 247 250 252
171 166 167 162 160 163 163 166 174 176 177 182 199 198 211 229 240 257 244 231 242 241 237 207 212 196 213 220 223 224 229 224 216 221 225 229 230 231 236 239 243 243 247
168 170 169 169 163 168 170 171 177 186 188 191 202 220 216 222 226 246 255 268 275 259 266 253 224 233 197 227 220 215 228 225 223 225 227 225 228 226 228 233 235 240 240
170 169 164 165 168 170 173 174 178 184 198 200 202 218 228 231 228 219 231 235 233 238 253 254 265 242 254 252 266 244 229 230 238 217 225 227 232 228 226 227 228 231 234
176 171 172 172 168 174 178 186 188 193 201 211 215 212 223 227 235 250 243 261 223 209 247 252 245 245 249 257 257 256 253 251 239 227 215 218 224 229 232 233 232 232 234
185 184 176 173 178 180 181 189 192 199 209 212 215 224 218 214 226 230 239 234 233 243 248 247 261 256 255 250 253 252 246 245 247 248 225 221 224 229 236 241 243 248 249
182 186 195 178 181 185 192 193 201 206 215 222 220 232 234 211 236 224 233 247 246 241 236 240 252 255 255 254 245 252 253 244 250 251 246 245 226 221 232 238 243 255 258
179 188 179 185 186 164 48 304 205 215 224 226 226 227 225 230 229 227 232 242 242 247 246 246 248 253 257 255 252 255 256 262 259 261 263 262 266 254 48 36 360 329 302
49 47 39 60 69 65 17 18 355 257 220 224 231 232 232 224 230 228 229 241 252 258 264 267 266 259 262 265 264 267 274 280 284 324 289 276 350 60 42 37 40 35 26
67 72 67 68 62 35 12 8 359 275 256 357 357 352 321 36 31 359 342 263 268 265 262 273 275 277 291 29 346 314 287 278 286 10 357 324 27 67 34 33 38 49 66
62 68 70 69 62 32 11 7 353 62 78 62 45 31 31 25 15 352 334 340 45 48 33 54 65 53 42 12 337 312 312 289 280 86 359 263 27 91 56 49 38 40 44
60 64 59 64 52 33 16 13 43 78 74 66 56 41 37 32 6 346 328 324 96 89 67 69 70 63 50 42 31 349 26 356 319 57 20 348 48 88 81 18 28 45 44
94 85 63 54 54 39 26 21 52 84 85 77 61 51 42 39 29 22 49 72 82 61 73 68 59 53 49 40 40 38 8 36 15 69 28 335 36 63 47 13 45 36 46